Tracking 21473 objects as of 27-Sep-2020
HD Live streaming from Space Station
objects crossing your sky now

STARLINK-1393

Track STARLINK-1393 now!
10-day predictions
STARLINK-1393 is classified as:


NORAD ID: 45678
Int'l Code: 2020-035X
Perigee: 556.0 km
Apogee: 557.8 km
Inclination: 53.0 °
Period: 95.6 minutes
Semi major axis: 6927 km
RCS: Unknown
Launch date: June 4, 2020
Source: United States (US)
Launch site: AIR FORCE EASTERN TEST RANGE (AFETR)
aabbcc
Your satellite tracking list
Your tracking list is empty




NASA's NSSDC Master Catalog

Two Line Element Set (TLE):
1 45678U 20035X   20271.58337963 +.00019251 +00000-0 +13369-2 0  9998
2 45678 053.0005 346.0583 0001285 082.0258 022.0965 15.05577003001755
Source of the keplerian elements: AFSPC